Temp
-9 -9 -9 -9 -9 -9 -9 -8 -8 -8 -8 -8 -8 -8 -8 -7 -8 -7 -7 -7 -8 -9 -9 -9 -8 -9 -9 -9 -9 -9 -9 -9 -9 -9 -9 -9 -9 -9 -9 -9 -9 -9 -9 -9
-10 -10 -10 -10 -10 -9 -9 -9 -9 -9 -9 -8 -7 -7 -8 -8 -8 -8 -8 -8 -8 -9 -9 -9 -9 -9 -9 -9 -10 -10 -10 -10 -10 -10 -10 -10 -10 -10 -10 -10 -10 -10 -10 -10
-11 -10 -10 -10 -10 -10 -9 -10 -10 -9 -9 -8 -8 -8 -9 -9 -8 -9 -8 -8 -9 -9 -9 -10 -10 -10 -10 -10 -10 -10 -10 -10 -10 -10 -10 -10 -10 -10 -10 -10 -10 -10 -10 -10
-11 -11 -10 -10 -10 -10 -10 -10 -9 -9 -9 -9 -9 -8 -9 -9 -10 -9 -9 -9 -9 -10 -10 -10 -10 -11 -11 -11 -11 -11 -11 -11 -11 -11 -11 -10 -10 -10 -10 -10 -10 -11 -11 -11
-11 -11 -10 -10 -10 -10 -10 -10 -10 -10 -9 -9 -10 -8 -9 -10 -10 -10 -10 -10 -10 -10 -10 -10 -11 -11 -11 -11 -11 -11 -11 -11 -11 -11 -11 -10 -10 -10 -10 -10 -11 -11 -11 -12
-11 -11 -10 -10 -10 -10 -10 -10 -10 -10 -10 -9 -10 -10 -10 -10 -10 -10 -10 -11 -11 -10 -11 -11 -11 -11 -11 -11 -11 -11 -11 -11 -11 -11 -11 -11 -11 -11 -11 -11 -12 -12 -12 -12
-11 -10 -11 -11 -11 -10 -10 -10 -10 -10 -10 -10 -10 -10 -10 -10 -10 -11 -11 -11 -11 -11 -11 -11 -12 -12 -12 -11 -11 -12 -12 -12 -12 -12 -12 -12 -12 -12 -12 -12 -12 -13 -13 -14
-11 -11 -11 -11 -11 -10 -10 -11 -11 -11 -10 -10 -11 -10 -10 -10 -11 -11 -11 -11 -12 -12 -12 -12 -13 -12 -12 -13 -13 -12 -12 -12 -13 -13 -13 -13 -13 -13 -13 -13 -14 -14 -15 -15
-11 -11 -11 -11 -11 -11 -11 -11 -11 -11 -11 -11 -11 -11 -11 -11 -11 -12 -12 -12 -13 -13 -13 -13 -13 -13 -13 -13 -13 -13 -13 -13 -13 -13 -14 -14 -14 -14 -15 -15 -15 -16 -16 -16
-11 -11 -11 -11 -11 -11 -11 -11 -11 -11 -11 -11 -11 -12 -12 -12 -12 -12 -13 -13 -13 -13 -14 -13 -13 -13 -14 -14 -14 -14 -14 -14 -15 -15 -15 -15 -15 -15 -16 -16 -17 -17 -17 -17
-11 -11 -12 -11 -11 -12 -12 -12 -12 -12 -12 -12 -12 -12 -12 -12 -13 -13 -13 -13 -13 -13 -14 -14 -14 -14 -14 -14 -14 -15 -15 -15 -15 -15 -15 -16 -16 -17 -17 -18 -18 -18 -18 -18
-12 -12 -12 -12 -12 -12 -12 -12 -13 -12 -13 -13 -13 -12 -13 -13 -13 -13 -13 -13 -14 -14 -14 -14 -15 -15 -15 -15 -15 -15 -16 -16 -16 -16 -16 -17 -17 -18 -18 -18 -18 -18 -19 -19
-12 -12 -12 -12 -13 -13 -13 -13 -13 -13 -13 -13 -13 -13 -14 -14 -13 -14 -14 -14 -15 -15 -15 -15 -15 -16 -16 -16 -16 -16 -16 -16 -16 -17 -18 -18 -19 -19 -19 -19 -19 -19 -20 -21
-13 -13 -13 -13 -13 -13 -13 -13 -13 -13 -13 -13 -13 -14 -15 -14 -14 -15 -15 -15 -16 -16 -16 -16 -16 -17 -17 -17 -17 -17 -17 -17 -17 -18 -18 -19 -19 -19 -19 -20 -20 -21 -22 -22
-13 -13 -13 -13 -13 -13 -13 -14 -14 -14 -14 -13 -14 -14 -14 -15 -15 -16 -16 -16 -16 -16 -16 -16 -17 -17 -17 -17 -17 -17 -18 -18 -18 -19 -19 -19 -19 -20 -20 -21 -22 -22 -22 -22
-14 -13 -14 -14 -14 -14 -14 -14 -14 -14 -14 -14 -15 -15 -15 -16 -16 -17 -17 -16 -16 -17 -17 -17 -17 -18 -17 -17 -17 -17 -18 -18 -19 -19 -19 -20 -20 -21 -22 -23 -23 -22 -22 -22
-14 -14 -14 -14 -14 -14 -14 -14 -14 -14 -14 -15 -15 -16 -16 -16 -17 -17 -17 -17 -17 -17 -17 -18 -18 -18 -18 -18 -18 -18 -19 -19 -19 -20 -20 -21 -22 -23 -23 -23 -22 -22 -22 -22
-14 -14 -14 -14 -14 -14 -14 -14 -15 -15 -16 -16 -16 -16 -17 -17 -17 -17 -17 -17 -17 -17 -17 -18 -18 -19 -19 -19 -19 -19 -20 -20 -20 -21 -22 -23 -23 -23 -23 -22 -22 -22 -22 -22
-15 -15 -14 -15 -15 -15 -15 -16 -16 -16 -17 -17 -17 -18 -18 -18 -18 -18 -18 -18 -18 -18 -19 -19 -19 -19 -19 -19 -20 -20 -20 -20 -22 -23 -24 -23 -23 -23 -22 -22 -22 -23 -22 -22
-15 -15 -15 -16 -16 -16 -16 -17 -17 -17 -17 -17 -18 -18 -18 -18 -17 -18 -18 -18 -19 -19 -19 -19 -20 -20 -20 -20 -20 -20 -21 -23 -24 -24 -23 -23 -23 -22 -22 -23 -22 -23 -22 -22
-16 -16 -17 -17 -17 -16 -17 -17 -17 -17 -18 -18 -18 -18 -18 -18 -18 -18 -18 -19 -19 -19 -20 -20 -20 -20 -21 -21 -21 -22 -23 -24 -24 -23 -23 -23 -23 -22 -23 -23 -23 -22 -22 -22
-17 -17 -17 -17 -17 -17 -17 -18 -18 -18 -18 -18 -18 -18 -18 -18 -18 -19 -19 -20 -20 -20 -21 -21 -21 -21 -21 -21 -22 -23 -24 -24 -24 -23 -23 -23 -23 -23 -23 -23 -23 -22 -22 -23
-17 -18 -17 -18 -18 -18 -18 -18 -18 -18 -18 -18 -18 -18 -18 -19 -19 -20 -20 -20 -21 -21 -21 -21 -21 -22 -22 -23 -23 -24 -24 -24 -23 -23 -23 -23 -23 -23 -23 -23 -22 -23 -23 -22
-18 -18 -18 -18 -18 -18 -19 -19 -18 -18 -19 -19 -19 -19 -20 -20 -20 -20 -21 -21 -21 -21 -22 -22 -22 -23 -23 -24 -24 -24 -24 -23 -23 -23 -23 -23 -23 -23 -23 -23 -23 -23 -23 -22
-19 -18 -18 -18 -19 -19 -19 -19 -19 -19 -19 -20 -20 -20 -20 -20 -21 -21 -21 -22 -22 -22 -23 -23 -24 -24 -24 -24 -24 -24 -24 -23 -23 -23 -23 -23 -23 -23 -24 -24 -23 -23 -23 -22
-19 -19 -19 -19 -19 -20 -20 -20 -20 -20 -20 -20 -20 -20 -20 -21 -21 -22 -22 -22 -23 -23 -24 -24 -25 -25 -25 -24 -24 -24 -24 -24 -23 -23 -23 -23 -23 -24 -24 -24 -24 -23 -22 -22
Height
5853 5856 5856 5857 5861 5861 5860 5862 5862 5862 5863 5864 5863 5864 5861 5860 5860 5857 5855 5855 5854 5853 5851 5847 5846 5845 5844 5841 5839 5836 5834 5832 5830 5827 5824 5821 5817 5814 5811 5808 5805 5801 5797 5793
5850 5851 5853 5855 5856 5857 5856 5857 5858 5857 5856 5856 5856 5858 5855 5853 5854 5850 5849 5848 5848 5846 5844 5841 5840 5838 5836 5834 5831 5829 5826 5824 5821 5818 5815 5812 5808 5804 5800 5796 5792 5787 5783 5778
5846 5848 5850 5851 5851 5852 5852 5853 5852 5851 5851 5850 5850 5852 5850 5847 5845 5844 5843 5842 5841 5839 5837 5835 5832 5830 5828 5826 5823 5820 5817 5814 5811 5807 5803 5800 5796 5792 5788 5783 5778 5772 5767 5762
5842 5844 5846 5846 5846 5847 5847 5847 5847 5846 5844 5844 5844 5842 5845 5840 5838 5837 5836 5834 5833 5832 5830 5828 5825 5822 5820 5817 5814 5811 5807 5803 5799 5795 5791 5787 5783 5778 5773 5767 5762 5756 5749 5743
5840 5840 5841 5842 5843 5842 5843 5842 5841 5840 5838 5838 5838 5833 5839 5835 5832 5830 5829 5828 5827 5824 5822 5819 5817 5815 5812 5810 5806 5801 5797 5792 5787 5782 5777 5772 5767 5761 5755 5749 5744 5737 5731 5725
5835 5836 5837 5838 5838 5838 5837 5836 5835 5834 5832 5831 5830 5829 5830 5828 5826 5825 5823 5821 5819 5816 5813 5811 5809 5806 5803 5798 5793 5789 5783 5777 5772 5767 5761 5754 5749 5742 5736 5730 5725 5718 5712 5705
5830 5831 5833 5832 5833 5832 5831 5830 5829 5828 5826 5826 5824 5823 5823 5821 5820 5818 5816 5813 5810 5806 5804 5802 5799 5794 5789 5784 5779 5774 5770 5763 5757 5751 5745 5738 5732 5725 5719 5712 5705 5699 5692 5686
5826 5828 5828 5827 5826 5826 5825 5824 5823 5820 5820 5820 5818 5817 5816 5814 5811 5808 5806 5803 5801 5799 5796 5791 5787 5782 5777 5773 5768 5763 5756 5749 5742 5736 5729 5722 5715 5709 5701 5693 5686 5679 5671 5663
5821 5822 5821 5821 5820 5820 5819 5818 5817 5815 5814 5812 5811 5809 5807 5804 5802 5800 5798 5795 5792 5789 5785 5781 5776 5772 5766 5760 5754 5747 5741 5734 5727 5721 5714 5706 5698 5690 5682 5674 5666 5657 5648 5640
5815 5816 5816 5816 5814 5813 5813 5812 5811 5809 5806 5805 5803 5801 5799 5797 5794 5792 5788 5785 5782 5778 5774 5770 5764 5757 5752 5746 5740 5734 5728 5721 5713 5706 5697 5689 5680 5671 5663 5653 5644 5635 5626 5617
5809 5810 5811 5809 5808 5807 5806 5805 5803 5802 5800 5797 5796 5795 5791 5789 5786 5782 5778 5774 5771 5766 5761 5755 5749 5744 5738 5733 5727 5721 5714 5706 5698 5689 5680 5670 5660 5651 5641 5631 5622 5613 5603 5593
5804 5804 5804 5804 5802 5801 5800 5798 5797 5795 5794 5790 5787 5785 5781 5778 5774 5770 5767 5764 5759 5754 5748 5742 5737 5731 5724 5718 5713 5706 5698 5689 5680 5671 5661 5650 5641 5631 5621 5611 5601 5590 5580 5569
5799 5798 5798 5798 5798 5796 5794 5792 5790 5788 5785 5784 5778 5778 5769 5766 5761 5760 5756 5752 5747 5740 5735 5730 5724 5717 5711 5704 5697 5690 5682 5673 5663 5653 5643 5633 5622 5612 5601 5591 5579 5568 5558 5549
5793 5793 5792 5792 5790 5789 5788 5785 5782 5778 5776 5773 5772 5766 5761 5754 5753 5750 5746 5740 5734 5729 5724 5719 5714 5708 5700 5693 5685 5677 5668 5658 5648 5638 5627 5615 5604 5592 5580 5568 5558 5548 5539 5532
5788 5787 5786 5784 5782 5781 5780 5777 5773 5769 5767 5762 5761 5756 5751 5748 5743 5739 5734 5728 5723 5719 5715 5709 5702 5695 5687 5678 5670 5660 5650 5640 5630 5619 5607 5595 5583 5571 5559 5549 5540 5532 5524 5515
5782 5781 5779 5777 5774 5772 5771 5767 5764 5760 5755 5752 5748 5745 5741 5737 5733 5728 5722 5716 5713 5707 5700 5694 5688 5680 5673 5664 5655 5645 5634 5623 5612 5600 5587 5574 5562 5551 5541 5534 5525 5517 5508 5499
5774 5772 5770 5769 5767 5763 5761 5758 5754 5750 5746 5742 5739 5735 5730 5727 5722 5716 5711 5706 5701 5695 5689 5682 5674 5665 5655 5646 5638 5628 5617 5606 5594 5581 5568 5555 5544 5536 5528 5520 5511 5503 5493 5485
5766 5763 5760 5758 5756 5754 5751 5746 5743 5740 5736 5733 5730 5726 5721 5716 5710 5704 5700 5695 5689 5682 5674 5666 5657 5648 5640 5631 5621 5611 5600 5588 5575 5562 5550 5540 5532 5524 5516 5507 5498 5489 5480 5473
5756 5753 5750 5748 5746 5745 5740 5737 5734 5730 5729 5724 5720 5714 5709 5704 5699 5694 5686 5680 5673 5666 5658 5650 5642 5633 5623 5614 5605 5594 5582 5569 5557 5548 5538 5529 5521 5513 5504 5495 5485 5478 5471 5464
5746 5743 5741 5738 5735 5733 5731 5727 5724 5722 5720 5714 5709 5704 5699 5693 5688 5684 5675 5668 5661 5653 5644 5635 5626 5617 5608 5598 5588 5578 5566 5555 5546 5537 5528 5520 5510 5501 5492 5483 5475 5468 5462 5456
5736 5734 5733 5729 5726 5725 5722 5719 5715 5712 5710 5701 5696 5691 5685 5679 5672 5667 5659 5651 5643 5635 5627 5618 5610 5601 5592 5583 5573 5562 5552 5544 5536 5527 5519 5509 5500 5490 5480 5473 5466 5459 5454 5448
5729 5728 5725 5722 5718 5716 5713 5709 5705 5700 5693 5688 5683 5677 5671 5664 5657 5650 5643 5636 5628 5621 5613 5605 5597 5588 5579 5570 5560 5551 5542 5535 5526 5518 5509 5500 5490 5480 5472 5465 5459 5452 5448 5441
5723 5721 5718 5714 5709 5706 5702 5697 5692 5686 5680 5674 5669 5663 5656 5650 5643 5636 5629 5621 5613 5606 5599 5591 5583 5575 5565 5556 5548 5542 5534 5526 5518 5509 5500 5490 5481 5472 5465 5458 5452 5447 5441 5434
5716 5712 5708 5703 5701 5695 5689 5684 5678 5672 5667 5660 5654 5648 5642 5637 5630 5623 5616 5609 5601 5593 5586 5577 5569 5562 5554 5546 5539 5533 5525 5518 5509 5501 5491 5482 5474 5467 5459 5452 5447 5442 5435 5429
5707 5700 5696 5693 5688 5682 5677 5671 5666 5661 5655 5649 5643 5637 5631 5625 5617 5610 5603 5595 5587 5579 5571 5564 5557 5551 5544 5537 5531 5525 5517 5509 5502 5493 5483 5475 5467 5462 5456 5449 5443 5437 5430 5423
5694 5690 5685 5682 5678 5672 5666 5661 5656 5651 5646 5640 5634 5628 5618 5610 5603 5595 5588 5580 5573 5566 5558 5552 5546 5541 5534 5528 5522 5516 5508 5501 5493 5485 5476 5468 5463 5458 5453 5448 5442 5433 5427 5421
Wind_Speed
25 24 24 25 22 22 24 24 22 24 21 20 22 22 25 24 23 28 29 27 25 26 27 31 30 28 28 29 30 31 33 34 35 36 37 39 42 44 47 49 51 54 57 60
21 23 22 20 20 22 24 23 21 23 24 24 23 20 23 26 24 27 29 27 26 26 27 28 28 29 29 30 32 33 35 37 37 39 40 43 45 48 50 53 56 60 62 64
18 19 20 20 21 22 21 21 24 27 26 27 26 23 23 26 26 26 28 27 27 27 27 28 28 30 31 32 34 35 37 40 41 43 45 47 50 52 55 59 62 64 66 68
20 18 17 19 21 22 22 24 26 28 29 29 29 31 20 25 25 25 26 27 28 29 29 28 29 30 32 34 36 39 42 43 46 48 51 53 55 58 61 64 66 67 69 70
20 20 19 21 22 25 25 27 29 30 30 31 27 34 20 22 24 27 29 29 29 30 30 30 31 33 34 36 40 43 45 48 50 53 56 59 62 65 68 70 71 72 73 74
19 20 21 22 24 26 27 28 30 30 30 30 27 29 25 24 24 25 27 28 30 32 32 32 34 38 39 43 46 48 50 52 56 59 63 66 68 70 72 74 75 75 75 73
20 21 21 23 24 26 27 28 29 30 28 27 27 28 26 27 26 27 29 31 32 32 34 36 38 42 45 48 50 51 55 59 62 64 67 69 72 73 75 75 75 75 74 73
22 21 21 24 25 25 25 25 25 27 26 26 26 28 28 29 30 30 32 33 34 36 38 41 43 45 48 50 54 58 60 63 65 67 69 71 72 73 73 74 74 74 75 76
20 20 20 21 22 23 22 23 24 26 28 29 28 29 30 30 33 33 34 37 38 40 41 43 45 48 51 55 57 60 62 64 66 67 68 69 71 72 74 75 76 77 78 78
18 19 17 18 21 22 23 23 24 26 29 30 30 30 31 33 34 36 39 41 42 42 44 47 50 53 54 54 57 59 60 62 63 65 68 71 73 75 77 78 79 80 80 81
20 20 19 21 22 23 24 25 26 27 29 31 32 31 34 35 37 41 43 43 44 47 50 52 53 53 54 56 57 57 59 61 63 67 71 74 77 78 79 81 83 83 84 84
21 22 21 22 23 24 25 25 27 28 30 32 34 37 38 40 41 44 45 46 48 50 51 52 51 53 54 54 55 56 60 64 69 73 76 79 80 82 84 85 87 87 85 78
22 22 22 22 23 24 25 27 28 30 33 33 38 37 42 43 47 47 46 48 49 50 50 49 49 51 53 55 58 61 66 70 74 76 79 80 83 84 87 89 88 81 73 70
21 21 22 23 24 26 26 29 32 35 37 38 38 39 42 48 48 46 45 44 44 45 47 48 49 49 53 57 62 66 70 73 75 78 80 82 85 89 91 84 73 69 64 60
22 23 24 26 28 29 30 31 35 38 40 44 43 44 46 45 43 41 42 43 45 46 48 48 50 53 58 63 67 70 73 75 77 80 82 86 89 86 76 69 65 60 59 61
25 26 28 30 33 35 36 38 40 41 44 46 46 45 42 38 37 37 40 45 47 48 50 53 56 59 63 67 71 74 76 78 79 81 84 87 81 70 66 60 57 58 61 62
30 32 35 35 36 39 40 39 42 44 45 42 40 39 39 38 38 41 45 47 49 52 54 57 60 64 68 71 73 74 76 78 80 83 82 73 66 62 56 55 57 59 58 46
35 37 40 40 40 40 41 41 41 40 39 38 38 39 38 40 43 48 49 52 55 58 60 61 64 66 68 70 72 73 76 78 80 77 67 62 57 54 55 56 58 54 44 42
37 38 39 39 40 39 37 36 36 36 35 35 36 38 41 46 48 50 55 58 61 62 62 64 65 67 69 70 71 73 77 77 71 63 58 54 54 53 55 56 51 41 41 38
37 37 36 34 34 36 33 34 34 34 36 38 41 43 46 50 53 55 57 58 59 61 63 64 65 66 68 70 73 75 72 65 61 54 51 53 53 55 56 49 39 40 34 33
31 29 27 30 32 33 31 34 36 39 42 44 46 48 51 52 55 56 59 61 63 64 64 64 66 67 69 72 72 68 60 56 53 51 51 53 54 54 48 38 39 32 31 35
27 26 27 31 35 37 36 39 44 48 51 52 51 51 51 53 56 59 61 62 62 62 63 65 65 67 70 68 62 55 51 51 51 49 51 53 53 46 38 37 34 33 33 35
26 28 34 37 38 39 42 48 53 53 49 46 47 51 54 56 58 60 61 62 63 63 63 63 66 67 62 57 51 46 48 48 47 48 51 52 44 37 36 35 33 31 31 32
31 35 37 40 42 45 50 55 52 46 47 50 52 54 55 56 59 61 62 62 62 62 63 65 64 58 52 46 46 45 47 49 47 48 50 43 37 32 34 32 28 23 25 27
33 38 41 43 45 52 55 48 46 49 50 52 53 54 56 58 60 61 61 61 62 63 63 59 53 48 44 44 44 45 48 47 45 47 44 37 30 32 30 25 22 25 27 27
33 38 45 48 50 49 44 46 49 50 51 52 53 54 57 60 61 61 60 62 63 62 54 48 45 42 41 41 43 47 46 43 44 44 35 31 28 28 24 19 23 27 27 24
Wind_Direction
230 234 237 242 248 250 256 264 269 272 274 266 258 256 269 269 275 273 275 277 273 272 275 274 278 277 276 277 277 277 278 279 282 284 285 285 286 287 287 288 288 289 290 291
228 234 240 246 253 255 258 265 270 269 272 274 271 274 274 278 275 274 275 276 275 273 272 273 272 273 274 276 276 277 278 280 283 284 285 286 287 287 288 289 290 291 291 291
234 240 243 247 249 251 257 263 264 269 273 277 278 278 278 277 275 271 272 272 273 273 272 272 276 278 278 278 280 282 285 286 287 287 287 286 287 287 288 289 290 291 291 290
236 244 245 246 250 257 261 264 267 272 275 280 284 280 278 271 275 274 271 270 272 274 275 278 280 279 282 285 289 290 290 289 287 286 286 287 288 289 291 291 291 290 290 289
234 240 242 247 253 259 263 267 271 274 279 281 282 283 280 276 276 275 275 276 274 273 274 275 277 280 285 289 289 287 286 286 288 289 288 289 292 293 293 292 291 291 291 291
236 241 247 252 258 265 269 272 275 278 279 279 279 280 287 286 281 278 276 274 274 276 279 280 283 287 290 289 287 289 291 292 292 293 295 295 295 294 293 293 294 293 293 292
248 251 254 259 263 265 269 272 274 275 277 281 282 284 285 283 278 276 277 278 279 279 282 287 291 293 293 292 294 295 295 296 297 296 295 294 295 295 295 295 294 293 294 294
251 257 260 263 265 267 269 270 273 278 281 281 285 285 283 283 285 285 285 284 282 288 296 298 298 296 295 296 295 296 297 296 295 296 297 297 296 296 296 296 297 298 297 296
261 262 262 265 270 272 271 273 276 278 281 283 282 284 285 287 287 287 288 294 297 297 296 294 294 294 293 295 297 297 297 298 298 298 299 300 300 301 301 301 301 300 299 299
267 267 265 265 267 270 272 275 276 278 279 280 282 285 286 287 289 293 293 292 292 293 293 294 294 295 298 297 297 298 299 301 303 304 304 305 304 303 302 301 301 301 301 300
265 269 266 268 268 271 276 278 279 279 282 286 287 287 286 288 288 288 289 292 294 296 297 297 296 298 297 298 301 303 305 305 307 307 306 304 303 303 303 303 303 303 301 300
267 270 274 274 276 279 281 282 282 284 286 287 290 288 292 291 290 288 292 296 297 298 296 296 297 298 300 303 305 305 306 307 307 307 307 307 306 305 305 305 304 303 303 302
272 275 276 278 278 278 279 283 285 285 284 287 286 293 291 291 289 296 298 298 297 295 294 297 299 302 305 304 304 307 307 308 309 308 308 306 306 305 305 304 304 304 301 299
274 276 279 280 280 281 284 286 286 286 288 288 290 288 289 290 295 296 296 294 291 289 293 298 301 301 298 301 303 305 307 307 307 306 306 305 305 305 305 305 302 299 301 300
276 278 281 283 285 288 288 288 287 289 288 287 288 289 289 292 293 291 289 286 286 290 295 297 297 299 302 303 305 306 307 307 307 306 306 306 305 306 305 301 303 303 303 304
284 285 285 285 288 288 289 289 290 289 289 291 292 292 291 288 287 285 282 285 293 299 300 302 303 302 301 302 305 307 308 309 308 308 307 306 308 306 304 307 306 306 306 306
286 287 286 286 286 287 288 288 287 288 288 289 290 289 288 288 285 286 291 296 298 298 300 301 301 303 305 307 308 309 310 310 309 308 308 309 307 307 309 308 308 307 308 305
286 287 287 288 288 288 289 288 288 289 290 291 291 292 290 286 288 292 294 294 297 300 303 304 304 305 306 308 309 311 310 310 310 311 311 309 310 310 310 309 310 310 307 305
287 287 287 288 287 288 289 291 291 292 294 298 296 292 289 290 291 295 298 300 302 304 304 304 305 307 310 310 311 312 313 312 314 312 312 310 311 312 310 312 311 308 307 306
286 286 286 287 289 291 294 295 297 303 303 298 295 293 292 292 293 295 298 299 301 303 304 308 311 311 311 312 314 315 314 316 316 314 311 313 313 312 313 313 311 312 308 312
284 285 289 292 294 296 299 304 308 306 304 303 301 299 299 300 301 302 302 305 306 308 312 313 312 312 312 314 316 314 316 317 315 314 315 313 313 314 314 315 318 313 308 316
287 289 291 293 295 298 303 306 308 306 304 301 302 303 303 303 305 306 307 308 311 312 312 311 311 311 313 314 314 316 319 316 315 316 314 315 317 316 316 318 316 314 317 323
292 296 298 297 297 300 304 305 308 308 306 307 306 306 306 306 307 309 311 311 310 309 310 310 310 313 315 313 316 318 315 316 317 316 317 318 317 319 320 320 321 323 322 323
298 298 294 294 298 302 303 306 307 305 306 304 305 306 307 309 310 309 307 306 307 307 308 310 313 313 312 312 312 313 313 319 317 318 319 318 320 318 324 328 326 333 330 326
301 294 296 299 300 302 305 303 302 303 304 304 304 305 307 309 306 305 306 307 306 307 311 312 310 312 311 310 310 310 315 315 316 319 319 320 317 324 330 332 339 336 333 329
294 294 293 298 300 303 302 301 301 300 300 300 302 306 306 306 305 306 306 305 307 309 309 308 310 310 309 308 310 313 314 315 318 320 320 316 320 327 333 332 334 331 328 331